Regional Weather Roundup
Issued by NWS

Home | Current Version | Previous Version | Graphics & Text | Print | Product List | Glossary On
Versions: 1 2 3 4 5 6 7 8 9 10 11 12 13 14 15 16 17 18 19 20 21 22 23 24 25 26 27 28 29 30 31 32 33 34 35 36 37 38 39 40 41 42 43 44 45 46 47 48 49 50
000
ASUS43 KLSX 260259
RWRMO

WEATHER SUMMARY FOR MISSOURI
NATIONAL WEATHER SERVICE SPRINGFIELD MO
1000 PM CDT SAT OCT 25 2014

NOTE: "FAIR" INDICATES FEW OR NO CLOUDS BELOW 12,000 FEET WITH NO
       SIGNIFICANT WEATHER AND/OR OBSTRUCTIONS TO VISIBILITY.
       CURRENT SKY AND/OR WEATHER CONDITIONS ARE NOT AVAILABLE FOR
       CHILLICOTHE AND FARMINGTON.

MOZ001>031-035>038-043-044-053-054-260400-
...NORTHERN AND WESTERN MISSOURI...

CITY           SKY/WX    TMP DP  RH WIND       PRES   REMARKS
KANSAS CTY INT CLEAR     68  50  52 E10       30.00F
KANSAS C DTWN  CLEAR     65  52  62 E7        29.99F
LEE`S SUMMIT   CLEAR     63  55  75 E7        30.01F
ST JOSEPH      CLEAR     59  47  64 E5        30.00F
CHILLICOTHE      N/A     59  47  64 CALM      30.05R
KIRKSVILLE     CLEAR     57  45  64 NE6       30.06R

$$
MOZ066>068-077>081-088>096-101>105-260400-
...SOUTHWEST MISSOURI...

CITY           SKY/WX    TMP DP  RH WIND       PRES   REMARKS
SPRINGFIELD    CLEAR     62  58  86 S3        30.03S
JOPLIN         CLEAR     65  63  93 SE5       30.02S

$$
MOZ032>034-039>042-045>050-055>058-069>072-260400-
...CENTRAL MISSOURI...

CITY           SKY/WX    TMP DP  RH WIND       PRES   REMARKS
COLUMBIA       CLEAR     64  52  64 NE6       30.04R
JEFFERSON CITY CLEAR     62  56  80 CALM      30.02R
ROLLA          CLEAR     59  53  80 E3        30.02S
SEDALIA        CLEAR     66  55  67 E5        30.04R
OSAGE BEACH    CLEAR     61  57  88 CALM      30.02S

$$
MOZ051-052-059>065-260400-
...EAST CENTRAL MISSOURI...

CITY           SKY/WX    TMP DP  RH WIND       PRES   REMARKS
ST LOUIS INTL  CLEAR     63  54  72 CALM      30.03R
SPIRIT OF STL  CLEAR     55  53  93 CALM      30.02R
ST CHARLES     CLEAR     57  51  80 CALM      30.01S HAZE

$$
MOZ072>076-082>087-097>100-106>115-260400-
...SOUTH CENTRAL AND SOUTHEAST MISSOURI...

CITY           SKY/WX    TMP DP  RH WIND       PRES   REMARKS
CAPE GIRARDEAU CLEAR     60  58  92 E5        30.01S
FARMINGTON     CLEAR     59  55  88 CALM      30.05S
POPLAR BLUFF   FOG       62  60  93 CALM      30.00S VSB 1/4
WEST PLAINS    CLEAR     62  58  86 CALM      30.05S

$$



USA.gov is the U.S. government's official web portal to all federal, state and local government web resources and services.